This demonstration page uses our WeatherBlox Daily Observations layout. Learn more.

Left ArrowRight Arrow

Hourly Observations for November 5, 2015

Temp ( °F °C ) Dew Point ( °F °C ) Humidity (%) Winds ( mph kmh ) Pressure ( in mb ) Visibility ( mi km ) Precip ( " mm )
12:00 am 00:00 Cloudy with Nearby Thunderstorms 64 18 57 14 78 78 SW 21 33 29.71 1006 7 11 0.00 0.00
12:11 am 00:11 Cloudy with Strong Thunderstorms 60 15.6 56 13.3 86 86 SW 20 31 29.71 1006 3 4 0.08 2.03
12:13 am 00:13 Cloudy with Thunderstorms 60 15.6 56 13.3 86 86 SSW 18 30 29.71 1006 3 5 0.09 2.29
12:32 am 00:32 Cloudy with Light Rain 61 16 57 14 88 88 S 10 17 29.68 1005 6 10 0.00 0.00
12:53 am 00:53 Cloudy with Light Rain 60 15.6 56 13.3 86 86 undefined N/A 29.66 1004 10 16 0.12 3.05
1:53 am 01:53 Clear 60 15.6 56 13.3 86 86 S 13 20 29.64 1004 10 16 0.00 0.03
2:39 am 02:39 Mostly Cloudy 60 15.6 57 13.9 90 90 S 16 26 29.65 1004 10 16 0.00 0.00
2:53 am 02:53 Mostly Cloudy 60 15.6 57 13.9 90 90 S 15 24 29.66 1004 10 16 0.00 0.00
3:03 am 03:03 Partly Cloudy 61 16 57 14 88 88 S 16 26 29.65 1004 10 16 0.00 0.00
3:44 am 03:44 Mostly Cloudy 61 16 55 13 83 83 SSW 13 20 29.65 1004 10 16 0.00 0.00
3:53 am 03:53 Cloudy 60 15.6 56 13.3 86 86 S 14 22 29.64 1004 10 16 0.00 0.00
4:25 am 04:25 Cloudy 60 15.6 56 13.3 86 86 SSW 15 24 29.65 1004 10 16 0.00 0.00
4:53 am 04:53 Mostly Cloudy 60 15.6 56 13.3 86 86 SSW 15 24 29.64 1004 10 16 0.00 0.00
5:19 am 05:19 Partly Cloudy 59 15 56 13.3 90 90 SSW 15 24 29.68 1005 10 16 0.00 0.00
5:53 am 05:53 Clear 58 14.4 55 12.8 90 90 SSW 15 24 29.65 1004 10 16 0.00 0.00
6:53 am 06:53 Clear 56 13.3 50 10 81 81 SSW 12 19 29.66 1004 10 16 0.00 0.00
7:53 am 07:53 Sunny 53 11.7 46 7.8 77 77 SW 9 15 29.70 1006 10 16 0.00 0.00
8:53 am 08:53 Sunny 53 11.7 47 8.3 80 80 WSW 14 22 29.73 1007 10 16 0.00 0.00
9:53 am 09:53 Mostly Cloudy 54 12.2 47 8.3 77 77 W 18 30 29.75 1008 10 16 0.00 0.00
10:28 am 10:28 Cloudy 52 11 46 8 82 82 NW 15 24 29.80 1009 10 16 0.00 0.00
10:41 am 10:41 Cloudy 51 10.6 46 7.8 83 83 NW 15 24 29.80 1009 10 16 0.00 0.00
10:50 am 10:50 Cloudy 50 10 45 7 82 82 NW 18 30 29.80 1009 10 16 0.00 0.00
10:53 am 10:53 Cloudy 49 9.4 44 6.7 83 83 NW 16 26 29.80 1009 10 16 0.00 0.00
11:06 am 11:06 Cloudy 49 9.4 44 6.7 83 83 NW 17 28 29.83 1010 8 13 0.00 0.00
11:24 am 11:24 Cloudy 48 9 43 6 82 82 NW 18 30 29.83 1010 10 16 0.00 0.00
11:53 am 11:53 Cloudy 49 9.4 43 6.1 80 80 NNW 17 28 29.82 1010 10 16 0.00 0.00
12:27 pm 12:27 Cloudy 50 10 41 5 71 71 NNW 17 28 29.83 1010 10 16 0.00 0.00
12:53 pm 12:53 Cloudy 49 9.4 41 5 74 74 NNW 15 24 29.83 1010 10 16 0.00 0.00
1:53 pm 13:53 Cloudy 50 10 40 4.4 68 68 NNW 17 28 29.83 1010 10 16 0.00 0.00
2:53 pm 14:53 Cloudy 49 9.4 38 3.3 66 66 NNW 14 22 29.85 1011 10 16 0.00 0.00
3:53 pm 15:53 Cloudy 48 8.9 38 3.3 68 68 NW 14 22 29.88 1012 10 16 0.00 0.00
4:53 pm 16:53 Cloudy 48 8.9 38 3.3 68 68 NNW 10 17 29.92 1013 10 16 0.00 0.00
5:53 pm 17:53 Cloudy 47 8.3 38 3.3 71 71 NW 13 20 29.94 1014 10 16 0.00 0.00
6:53 pm 18:53 Mostly Cloudy 46 7.8 37 2.8 71 71 WNW 7 11 29.96 1015 10 16 0.00 0.00
7:53 pm 19:53 Clear 43 6.1 37 2.8 80 80 W 7 11 29.98 1015 10 16 0.00 0.00
8:53 pm 20:53 Clear 41 5 35 1.7 79 79 W 7 11 29.99 1016 10 16 0.00 0.00
9:53 pm 21:53 Clear 40 4.4 34 1.1 79 79 undefined N/A 30.01 1016 10 16 0.00 0.00
10:53 pm 22:53 Clear 37 2.8 33 0.6 86 86 WSW 8 13 30.04 1017 10 16 0.00 0.00
11:53 pm 23:53 Clear 37 2.8 33 0.6 86 86 WSW 10 17 30.06 1018 10 16 0.00 0.00

Powered by AerisWeather